• In United Kingdom
  • List of Countries
  • For 7 days
  • Water Temperature
  • Satellite Maps
  • Weather Map
  • Weather Widgets
  • user-avatar
    Login

    Hourly Weather Naftalan

    Today, 19 January, Friday

    Time Temperature Precipitation Wind Pressure Humidity
    00:00 +5°C° 0 mm 5 mps 757 mmHg 67%
    01:00 +5°C° 0 mm 5 mps 757 mmHg 65%
    02:00 +3°C° 0 mm 5 mps 757 mmHg 63%
    03:00 +3°C° 0 mm 5 mps 757 mmHg 64%
    04:00 +3°C° 0 mm 5 mps 757 mmHg 64%
    05:00 +3°C° 0 mm 5 mps 757 mmHg 63%
    06:00 +2°C° 0 mm 5 mps 758 mmHg 63%
    07:00 +5°C° 0 mm 5 mps 758 mmHg 61%
    08:00 +6°C° 0 mm 4 mps 758 mmHg 59%
    09:00 +7°C° 0 mm 4 mps 758 mmHg 55%
    10:00 +10°C° 0 mm 4 mps 758 mmHg 51%
    11:00 +12°C° 0 mm 4 mps 758 mmHg 47%
    12:00 +13°C° 0 mm 3 mps 758 mmHg 43%
    13:00 +14°C° 0 mm 3 mps 758 mmHg 42%
    14:00 +15°C° 0 mm 2 mps 759 mmHg 42%
    15:00 +15°C° 0 mm 1 mps 759 mmHg 41%
    16:00 +14°C° 0 mm 1 mps 759 mmHg 47%
    17:00 +12°C° 0 mm 1 mps 760 mmHg 52%
    18:00 +11°C° 0 mm 1 mps 760 mmHg 58%
    19:00 +9°C° 0 mm 2 mps 760 mmHg 61%
    20:00 +9°C° 0 mm 2 mps 760 mmHg 64%
    21:00 +8°C° 0 mm 3 mps 760 mmHg 67%
    22:00 +8°C° 0 mm 3 mps 761 mmHg 70%
    23:00 +8°C° 0 mm 3 mps 761 mmHg 73%

    Tomorrow, 20 January, Saturday

    Time Temperature Precipitation Wind Pressure Humidity
    00:00 +8°C° 0 mm 3 mps 761 mmHg 75%
    01:00 +8°C° 0 mm 3 mps 762 mmHg 75%
    02:00 +7°C° 0 mm 4 mps 762 mmHg 75%
    03:00 +7°C° 0 mm 5 mps 762 mmHg 74%
    04:00 +6°C° 0 mm 5 mps 763 mmHg 75%
    05:00 +6°C° 0 mm 5 mps 763 mmHg 75%
    06:00 +6°C° 0 mm 5 mps 764 mmHg 75%
    07:00 +7°C° 0 mm 5 mps 765 mmHg 73%
    08:00 +7°C° 0 mm 5 mps 765 mmHg 72%
    09:00 +7°C° 0 mm 5 mps 766 mmHg 70%
    10:00 +8°C° 0 mm 5 mps 766 mmHg 66%
    11:00 +9°C° 0 mm 5 mps 767 mmHg 62%
    12:00 +10°C° 0 mm 6 mps 767 mmHg 58%
    13:00 +10°C° 0 mm 5 mps 767 mmHg 58%
    14:00 +10°C° 0 mm 5 mps 767 mmHg 58%
    15:00 +10°C° 0 mm 5 mps 768 mmHg 58%
    16:00 +10°C° 0 mm 5 mps 768 mmHg 63%
    17:00 +10°C° 0 mm 4 mps 769 mmHg 69%
    18:00 +8°C° 0 mm 4 mps 770 mmHg 75%
    19:00 +7°C° 0 mm 4 mps 770 mmHg 77%
    20:00 +7°C° 0 mm 4 mps 770 mmHg 79%
    21:00 +7°C° 0 mm 4 mps 770 mmHg 81%
    22:00 +7°C° 0 mm 4 mps 770 mmHg 82%
    23:00 +6°C° 0 mm 4 mps 770 mmHg 84%

    Day after tomorrow, 21 January, Sunday

    Time Temperature Precipitation Wind Pressure Humidity
    00:00 +6°C° 0 mm 5 mps 769 mmHg 85%
    01:00 +6°C° 0 mm 5 mps 769 mmHg 84%
    02:00 +6°C° 0 mm 5 mps 769 mmHg 83%
    03:00 +6°C° 0 mm 5 mps 769 mmHg 82%
    04:00 +6°C° 0 mm 5 mps 769 mmHg 81%
    05:00 +6°C° 0 mm 5 mps 769 mmHg 80%
    06:00 +6°C° 0 mm 5 mps 768 mmHg 79%
    07:00 +7°C° 0 mm 5 mps 768 mmHg 75%
    08:00 +7°C° 0 mm 5 mps 768 mmHg 72%
    09:00 +8°C° 0 mm 5 mps 768 mmHg 69%
    10:00 +10°C° 0 mm 4 mps 767 mmHg 64%
    11:00 +11°C° 0 mm 4 mps 767 mmHg 59%
    12:00 +13°C° 0 mm 4 mps 766 mmHg 54%
    13:00 +13°C° 0 mm 4 mps 766 mmHg 53%
    14:00 +13°C° 0 mm 4 mps 765 mmHg 52%
    15:00 +13°C° 0 mm 3 mps 765 mmHg 52%
    16:00 +12°C° 0 mm 3 mps 765 mmHg 59%
    17:00 +11°C° 0 mm 3 mps 765 mmHg 66%
    18:00 +10°C° 0 mm 3 mps 765 mmHg 73%
    19:00 +9°C° 0 mm 3 mps 765 mmHg 75%
    20:00 +9°C° 0 mm 3 mps 765 mmHg 77%
    21:00 +9°C° 0 mm 3 mps 765 mmHg 80%
    22:00 +9°C° 0 mm 3 mps 765 mmHg 77%
    23:00 +9°C° 0 mm 3 mps 765 mmHg 75%

    22 January, Monday

    Time Temperature Precipitation Wind Pressure Humidity
    00:00 +8°C° 0 mm 2 mps 765 mmHg 72%
    01:00 +8°C° 0 mm 2 mps 765 mmHg 71%
    02:00 +8°C° 0 mm 2 mps 765 mmHg 71%
    03:00 +8°C° 0 mm 2 mps 765 mmHg 70%
    04:00 +8°C° 0 mm 2 mps 764 mmHg 70%
    05:00 +8°C° 0 mm 2 mps 764 mmHg 71%
    06:00 +7°C° 0 mm 2 mps 764 mmHg 71%
    07:00 +8°C° 0 mm 2 mps 764 mmHg 69%
    08:00 +10°C° 0 mm 2 mps 763 mmHg 67%
    09:00 +12°C° 0 mm 2 mps 763 mmHg 65%
    10:00 +13°C° 0 mm 2 mps 762 mmHg 64%
    11:00 +13°C° 0 mm 3 mps 762 mmHg 62%
    12:00 +14°C° 0 mm 3 mps 761 mmHg 61%
    13:00 +14°C° 0 mm 3 mps 760 mmHg 61%
    14:00 +15°C° 0 mm 2 mps 760 mmHg 61%
    15:00 +15°C° 0 mm 2 mps 759 mmHg 61%
    16:00 +14°C° 0 mm 2 mps 759 mmHg 67%
    17:00 +13°C° 0 mm 2 mps 759 mmHg 72%
    18:00 +12°C° 0 mm 1 mps 758 mmHg 77%
    19:00 +10°C° 0 mm 2 mps 758 mmHg 77%
    20:00 +10°C° 0 mm 2 mps 758 mmHg 77%
    21:00 +9°C° 0 mm 2 mps 758 mmHg 77%
    22:00 +9°C° 0 mm 2 mps 757 mmHg 74%
    23:00 +8°C° 0 mm 3 mps 757 mmHg 71%

    23 January, Tuesday

    Time Temperature Precipitation Wind Pressure Humidity
    00:00 +8°C° 0 mm 3 mps 757 mmHg 68%
    01:00 +7°C° 0 mm 4 mps 757 mmHg 64%
    02:00 +7°C° 0 mm 4 mps 757 mmHg 59%
    03:00 +7°C° 0 mm 4 mps 757 mmHg 54%
    04:00 +7°C° 0 mm 4 mps 757 mmHg 51%
    05:00 +7°C° 0 mm 5 mps 757 mmHg 48%
    06:00 +7°C° 0 mm 5 mps 757 mmHg 45%
    07:00 +8°C° 0 mm 5 mps 757 mmHg 41%
    08:00 +9°C° 0 mm 5 mps 758 mmHg 36%
    09:00 +12°C° 0 mm 5 mps 758 mmHg 32%
    10:00 +13°C° 0 mm 5 mps 758 mmHg 29%
    11:00 +15°C° 0 mm 5 mps 758 mmHg 25%
    12:00 +17°C° 0 mm 5 mps 758 mmHg 22%
    13:00 +18°C° 0 mm 4 mps 757 mmHg 22%
    14:00 +18°C° 0 mm 4 mps 757 mmHg 23%
    15:00 +18°C° 0 mm 3 mps 757 mmHg 23%
    16:00 +16°C° 0 mm 3 mps 758 mmHg 27%
    17:00 +14°C° 0 mm 2 mps 758 mmHg 30%
    18:00 +13°C° 0 mm 2 mps 759 mmHg 34%
    19:00 +12°C° 0 mm 2 mps 759 mmHg 42%
    20:00 +10°C° 0 mm 3 mps 759 mmHg 50%
    21:00 +10°C° 0 mm 3 mps 760 mmHg 57%
    22:00 +8°C° 0 mm 4 mps 760 mmHg 65%
    23:00 +8°C° 0 mm 4 mps 760 mmHg 73%

    24 January, Wednesday

    Time Temperature Precipitation Wind Pressure Humidity
    00:00 +7°C° 0 mm 5 mps 760 mmHg 80%
    01:00 +7°C° 0 mm 5 mps 761 mmHg 81%
    02:00 +7°C° 0 mm 5 mps 761 mmHg 81%
    03:00 +7°C° 0 mm 6 mps 761 mmHg 82%
    04:00 +7°C° 0 mm 6 mps 762 mmHg 83%
    05:00 +5°C° 0 mm 6 mps 762 mmHg 85%
    06:00 +5°C° 0 mm 6 mps 763 mmHg 86%
    07:00 +5°C° 0.1 mm 6 mps 763 mmHg 85%
    08:00 +5°C° 0.1 mm 7 mps 764 mmHg 83%
    09:00 +6°C° 0.1 mm 7 mps 765 mmHg 82%
    10:00 +6°C° 0.2 mm 7 mps 765 mmHg 81%
    11:00 +6°C° 0.2 mm 7 mps 765 mmHg 79%
    12:00 +6°C° 0.2 mm 7 mps 765 mmHg 78%
    13:00 +7°C° 0.1 mm 6 mps 766 mmHg 77%
    14:00 +7°C° 0.1 mm 6 mps 766 mmHg 75%
    15:00 +7°C° 0.1 mm 6 mps 766 mmHg 74%
    16:00 +7°C° 0.1 mm 6 mps 767 mmHg 76%
    17:00 +7°C° 0.1 mm 6 mps 767 mmHg 78%
    18:00 +6°C° 0.1 mm 5 mps 768 mmHg 80%
    19:00 +6°C° 0.1 mm 5 mps 769 mmHg 81%
    20:00 +6°C° 0.1 mm 5 mps 769 mmHg 82%
    21:00 +6°C° 0.1 mm 5 mps 770 mmHg 83%
    22:00 +6°C° 0.1 mm 5 mps 770 mmHg 83%
    23:00 +6°C° 0.1 mm 5 mps 770 mmHg 83%
    Show more